Location: Chevoux
(46.3801°N, 4.9476°E)
Time: 22:06:04
(UTC+00:00)

ATLAS 5 CENTAUR R/B - Pass Details

Date: 28 January 2021
Orbit: 511 x 1147 km, 63.3° (Epoch: 16 February)

Event Time Altitude Azimuth Distance (km) Brightness Sun altitude
Rises 19:38:23 0° 319° (NW) 3,014 5.7 -30.9°
Reaches altitude 10° 19:41:43 10° 345° (NNW) 2,231 4.6 -31.5°
Enters shadow 19:42:27 12° 353° (N) 2,134 4.4 -31.6°
